Wind_Speed
48 48 49 50 50 51 49 46 41 37 34 32 32 33 33 33 33 33 32 32 31 30 30 29 28 27 27 26 26 25 25 24 24 24 24 24 24 24 24 25 25 25 25 26 26 27 27 27 28 28 28 28 28 28 27 27 27 27 27 27 26 26 26 26 26 26 25 25 25 25 25 25 25 24 24 24 24 23 23 23 23 23 23 23 23 23
48 49 49 50 50 49 46 41 37 34 32 32 32 32 33 33 33 32 32 31 30 29 29 28 27 27 26 25 25 24 24 24 24 24 24 24 24 24 24 25 25 26 26 27 27 28 28 28 28 28 28 28 28 28 28 27 27 27 27 27 27 27 26 26 26 26 26 26 26 26 25 25 25 25 25 25 24 24 24 24 24 24 24 24 24 24
49 49 50 50 48 45 41 37 34 32 31 31 32 32 32 32 32 32 31 30 29 28 28 27 26 26 25 25 24 24 24 24 24 24 24 24 24 24 25 25 26 26 27 27 28 28 28 28 28 28 28 28 28 28 28 28 27 27 27 27 27 27 27 27 26 26 26 26 26 26 26 26 26 26 26 25 25 25 25 25 25 25 25 25 25 25
49 50 49 48 45 41 37 34 32 31 31 31 31 32 32 32 31 31 30 29 28 27 27 26 26 25 25 24 24 24 24 24 24 24 24 24 25 25 26 26 27 27 28 28 28 29 29 29 28 28 28 28 28 28 28 28 28 28 28 28 27 27 27 27 27 27 27 26 26 26 26 26 26 26 26 26 26 26 26 26 26 26 26 26 26 26
49 49 48 45 41 38 35 32 31 31 31 31 31 31 31 31 31 30 29 28 27 27 26 25 25 24 24 24 23 23 24 24 24 24 25 25 26 26 27 27 28 28 28 29 29 29 29 28 28 28 28 28 28 28 28 28 28 28 28 28 28 28 28 27 27 27 27 27 27 27 27 27 27 27 27 27 27 27 27 27 27 27 27 27 27 27
49 47 45 42 39 36 34 32 31 30 31 31 31 31 31 30 30 29 28 27 26 26 25 25 24 24 23 23 23 23 24 24 24 25 25 26 27 27 28 28 28 29 29 29 29 29 28 28 28 28 28 28 28 28 28 29 29 29 29 28 28 28 28 28 28 28 27 27 27 27 27 27 27 27 27 27 27 27 27 27 28 28 28 28 28 28
48 46 43 41 38 35 33 31 30 30 31 31 31 31 30 29 28 27 27 26 26 25 25 24 23 23 23 23 23 24 24 25 25 26 26 27 28 28 29 29 29 29 29 29 29 29 28 28 28 28 28 28 28 29 29 29 29 29 29 29 29 29 28 28 28 28 28 28 28 27 27 27 27 27 28 28 28 28 28 28 28 28 29 29 29 29
47 44 42 39 36 34 32 31 30 30 31 31 30 29 28 27 27 26 26 25 25 25 24 23 23 23 23 23 24 24 25 26 26 27 28 28 29 29 29 29 29 29 29 29 29 29 28 28 28 28 28 29 29 29 29 29 29 29 29 29 29 29 29 29 28 28 28 28 28 28 28 28 28 28 28 28 28 28 28 29 29 29 29 30 30 30
45 42 40 37 35 33 32 31 31 31 31 30 29 27 26 26 25 25 25 25 24 24 23 23 23 23 24 24 25 26 26 27 27 28 28 29 29 29 29 29 29 29 29 29 29 29 29 28 29 29 29 29 29 29 30 30 30 29 29 29 29 29 29 29 29 28 28 28 28 28 28 28 28 28 28 28 28 29 29 29 29 30 30 30 30 31
43 40 37 35 33 32 31 31 31 30 29 28 27 26 25 25 24 24 24 24 24 23 23 23 23 24 25 25 26 27 27 28 28 28 29 29 29 29 29 29 29 29 29 29 29 29 29 29 29 29 29 29 29 30 30 30 30 30 30 29 29 29 29 29 28 28 28 28 28 28 28 28 28 28 28 28 29 29 29 29 30 30 31 31 31 31
41 38 35 33 32 31 30 30 29 28 27 26 25 24 24 24 24 24 23 23 23 23 23 23 24 25 26 27 28 28 28 28 29 29 29 29 29 29 29 29 29 29 29 29 29 29 29 29 29 29 29 30 30 30 30 30 30 30 30 29 29 29 29 28 28 28 28 28 28 28 28 28 28 28 29 29 29 29 30 30 30 31 31 32 32 32
38 35 33 31 30 30 29 28 27 26 25 24 24 23 23 23 23 23 23 23 23 23 23 24 25 26 27 28 29 29 29 29 29 29 29 29 29 29 29 29 29 29 29 29 29 29 29 29 29 29 30 30 30 30 30 30 30 30 29 29 29 29 28 28 28 28 28 28 28 28 28 28 28 29 29 29 29 30 30 31 31 32 32 32 32 32
34 32 30 30 29 28 27 26 25 24 23 23 23 23 23 23 23 23 23 23 23 24 24 25 26 27 28 29 29 29 29 29 29 29 29 29 29 29 29 29 29 29 29 29 29 29 29 29 29 29 30 30 30 30 30 30 30 30 29 29 29 29 28 28 28 28 28 28 28 28 28 28 29 29 29 30 30 31 31 32 32 33 33 33 33 33
31 29 28 28 26 25 24 24 23 23 22 22 22 22 22 22 22 23 23 24 24 25 26 26 27 28 28 29 29 29 29 29 29 29 29 29 29 29 29 29 29 29 29 29 29 29 29 29 29 29 29 30 30 30 30 30 30 29 29 29 29 29 29 28 28 28 28 28 28 28 29 29 29 30 30 31 31 32 33 33 34 34 34 34 34 34
28 27 26 25 24 23 23 22 22 22 22 22 22 22 22 22 23 23 24 24 25 26 27 27 28 28 28 29 29 29 29 28 28 29 29 29 29 29 29 29 29 29 29 29 29 29 29 29 29 29 29 29 30 30 30 30 30 29 29 29 29 29 29 29 29 29 29 29 29 29 29 30 30 31 31 32 33 33 34 34 35 35 35 35 35 34
26 25 24 23 22 22 22 21 21 22 22 22 22 22 22 23 23 24 25 26 26 27 28 28 28 28 28 28 28 28 28 28 28 28 29 29 29 29 29 29 29 29 29 29 29 29 29 29 29 29 29 30 30 30 30 30 30 30 29 29 29 29 29 29 29 29 29 30 30 30 31 31 32 32 33 33 34 34 35 35 35 35 35 35 35 35
24 23 22 22 21 21 21 21 21 21 21 22 22 22 23 23 24 25 26 27 27 28 28 28 28 28 28 28 28 28 28 28 28 28 28 29 29 29 29 29 29 29 29 29 29 29 30 30 30 30 30 30 30 30 30 30 30 30 30 30 30 30 30 30 30 30 30 30 31 31 32 32 33 33 34 34 35 35 35 35 35 35 35 35 35 35
23 22 21 21 21 20 21 21 21 21 22 22 22 23 24 24 25 26 27 27 27 28 28 28 28 28 28 28 28 28 28 28 28 28 28 29 29 29 29 29 30 30 30 30 30 30 30 30 30 30 30 30 30 30 30 30 30 30 30 30 30 30 30 31 31 31 31 32 32 32 33 33 34 34 34 35 35 35 35 35 35 35 35 35 35 35
22 21 20 20 20 20 20 21 21 22 22 23 23 24 24 25 26 26 27 27 27 27 27 27 27 27 28 28 28 28 28 28 28 28 29 29 29 29 30 30 30 30 31 31 31 31 31 31 30 30 30 30 30 30 30 30 31 31 31 31 31 31 31 31 32 32 32 33 33 33 34 34 34 34 35 35 35 35 34 34 34 34 34 34 34 35
20 20 20 20 20 20 21 21 21 22 23 23 24 25 25 26 26 26 26 26 26 26 26 26 27 27 27 27 28 28 28 28 28 29 29 29 30 30 30 30 31 31 31 32 32 32 31 31 31 31 31 31 31 31 31 31 31 31 31 32 32 32 32 32 33 33 33 33 34 34 34 34 34 34 34 34 34 34 34 34 34 34 34 34 35 35
20 20 20 20 20 21 21 21 22 23 23 24 25 25 25 26 26 26 26 26 26 26 26 26 26 26 27 27 28 28 28 28 29 29 30 30 30 31 31 31 32 32 32 32 32 32 32 32 32 32 32 32 32 32 32 32 32 32 32 33 33 33 33 33 33 34 34 34 34 34 34 34 34 34 34 34 34 34 34 34 34 34 35 35 36 36
19 19 20 20 21 21 22 22 23 23 24 25 25 25 25 25 25 25 25 25 25 25 25 25 26 26 27 27 28 28 28 29 29 30 30 31 31 31 32 32 32 33 33 33 33 33 33 33 33 33 33 33 33 32 32 33 33 33 33 33 33 34 34 34 34 34 34 34 34 34 34 34 34 34 34 34 34 34 34 35 35 35 36 36 37 38
19 20 20 21 21 22 22 23 23 24 24 25 25 25 25 24 24 24 24 24 25 25 25 25 26 26 27 27 28 29 29 30 30 31 31 32 32 32 32 32 33 33 33 34 34 34 34 34 33 33 33 33 33 33 33 33 33 34 34 34 34 34 34 34 34 34 34 35 35 34 34 34 34 34 34 35 35 35 35 36 36 37 37 38 38 39
19 20 21 22 22 23 23 23 24 24 24 24 24 24 24 24 24 24 24 24 24 25 25 26 26 27 27 28 29 29 30 31 31 32 32 32 33 33 33 33 33 34 34 34 34 34 34 34 34 34 34 34 34 34 34 34 34 34 34 34 34 35 35 35 35 35 35 35 35 35 35 35 35 35 35 35 36 36 37 37 38 38 39 39 40 40
20 21 22 22 23 23 23 23 24 24 24 23 23 23 23 23 23 23 24 24 25 25 26 26 27 27 28 29 30 30 31 31 32 32 33 33 33 33 33 33 34 34 34 34 35 34 34 34 34 34 34 34 34 34 34 34 34 34 35 35 35 35 35 35 35 35 35 35 35 35 35 35 35 36 36 36 37 37 38 38 39 39 40 40 40 41
21 22 22 23 23 23 23 23 23 23 23 22 22 22 22 22 23 23 24 24 25 26 26 27 27 28 29 29 30 31 31 32 32 33 33 33 33 33 33 34 34 34 34 34 34 34 34 34 34 34 34 34 34 35 35 35 35 35 35 35 35 35 35 35 35 35 35 35 35 35 35 36 36 37 37 38 38 39 39 40 40 40 40 40 40 40
22 22 22 23 23 23 22 22 22 22 22 22 22 22 22 23 23 24 24 25 26 26 27 27 28 28 29 30 30 31 31 32 32 33 33 33 33 33 33 33 33 34 34 34 34 34 34 34 34 34 34 35 35 35 35 35 35 35 35 35 35 35 35 35 35 35 35 35 35 36 36 36 37 38 38 39 39 40 40 40 40 40 40 40 39 39
22 22 22 22 22 22 22 21 21 21 21 22 22 22 23 23 24 24 25 25 26 27 27 28 28 29 29 30 30 31 31 32 32 33 33 33 33 33 33 33 33 33 33 34 34 34 34 34 34 34 34 34 35 35 35 35 35 35 35 34 34 34 34 34 35 35 35 35 36 36 37 38 38 39 39 40 40 40 40 40 40 40 39 39 38 38
22 22 22 22 21 21 21 21 21 21 21 22 22 22 23 24 24 25 25 26 26 27 27 28 28 29 29 30 30 31 31 32 32 32 32 32 32 32 33 33 33 33 33 33 33 33 33 33 33 33 33 34 34 34 34 34 34 34 34 34 34 34 34 35 35 35 36 36 37 37 38 38 39 39 40 40 40 40 40 39 39 39 38 38 37 37
22 21 21 21 21 21 20 21 21 21 22 22 22 23 23 24 24 25 26 26 27 27 28 28 29 29 30 30 30 31 31 32 32 32 32 32 32 32 32 32 32 32 32 32 32 33 33 33 32 32 32 32 33 33 33 33 33 33 33 34 34 34 35 35 36 36 37 37 38 38 39 39 39 39 39 39 39 39 39 38 38 37 37 37 37 37
21 21 21 20 20 20 20 21 21 21 22 22 23 23 24 24 25 25 26 27 27 28 28 29 29 29 30 30 30 31 31 31 32 32 32 32 31 31 31 32 32 32 32 32 32 32 32 32 32 31 31 31 32 32 32 33 33 33 34 34 35 35 36 36 37 37 37 38 38 38 38 39 39 39 39 39 38 38 38 37 37 37 37 37 37 37
21 20 20 20 20 20 20 21 21 22 22 23 23 24 24 25 25 26 26 27 28 28 29 29 29 30 30 30 30 31 31 31 32 32 31 31 31 31 31 31 31 31 31 31 31 31 31 31 31 31 31 31 31 32 32 33 33 34 34 35 35 36 36 37 37 37 37 38 38 38 38 38 38 38 38 38 37 37 37 37 37 37 37 37 38 38
20 20 20 20 20 20 21 21 22 22 23 23 24 24 25 25 26 26 27 27 28 29 29 30 30 30 30 30 31 31 31 32 32 31 31 31 31 31 31 31 31 31 31 31 31 31 31 32 32 32 31 32 32 33 33 34 34 35 35 36 36 36 36 37 37 37 37 37 38 38 38 38 38 37 37 37 37 37 37 37 37 37 38 38 38 39
20 20 20 20 20 21 21 22 22 23 23 24 24 25 25 26 26 27 27 28 28 29 29 30 30 31 31 31 31 31 31 32 32 32 31 31 31 31 31 30 31 31 31 31 31 32 32 32 33 33 33 33 33 34 34 35 35 35 36 36 36 36 36 37 37 37 37 37 37 38 37 37 37 37 37 37 37 37 37 37 38 38 38 39 39 40
20 20 20 20 21 21 21 22 23 23 24 24 25 25 26 26 27 27 28 28 29 30 30 30 31 31 31 31 31 31 31 32 32 32 32 31 31 31 31 31 31 31 31 32 32 32 33 33 33 34 34 34 34 34 35 35 35 36 36 36 36 36 36 37 37 37 37 37 37 37 37 36 36 36 36 37 37 37 38 38 38 39 39 40 40 41
20 20 20 20 21 21 22 22 23 24 24 25 25 26 26 27 27 28 29 29 30 30 31 31 31 32 32 32 32 32 32 32 32 32 32 32 32 31 31 31 31 31 32 32 32 33 33 33 34 34 34 34 35 35 35 35 36 36 36 36 36 37 37 37 37 37 37 36 36 36 36 36 36 36 37 37 38 38 39 39 39 40 40 40 41 42
20 20 20 21 21 22 22 23 24 24 25 25 26 26 27 28 28 29 29 30 30 31 31 31 32 32 32 32 32 32 33 33 33 33 33 33 32 32 32 32 32 32 32 32 33 33 33 34 34 35 35 35 35 35 35 35 35 36 36 36 36 36 36 36 36 36 36 36 35 35 35 36 36 37 37 38 39 39 40 40 40 41 41 42 42 43
20 20 21 21 22 22 23 23 24 25 25 26 26 27 27 28 29 29 30 30 31 31 32 32 32 32 33 33 33 33 33 34 34 34 34 34 33 33 33 33 32 32 32 33 33 33 34 34 35 35 35 35 35 35 35 35 35 35 35 35 35 36 36 36 35 35 35 35 35 36 36 36 37 38 38 39 39 40 40 41 41 42 42 42 43 44
20 21 21 22 23 23 24 24 25 25 26 27 27 28 28 29 29 30 30 31 31 32 32 32 33 33 33 33 33 34 34 34 34 35 35 34 34 34 34 33 33 33 33 33 34 34 34 35 35 35 35 35 35 35 34 34 34 34 35 35 35 35 35 35 35 35 35 36 36 36 37 37 38 39 39 40 40 41 41 42 42 42 43 43 44 45
21 22 22 23 24 24 25 25 26 27 27 28 28 28 29 30 30 31 31 32 32 33 33 33 34 34 34 34 34 34 35 35 35 35 35 35 35 35 35 34 34 34 34 34 35 35 35 35 35 35 35 35 35 35 34 34 34 34 35 35 35 35 35 35 36 36 36 36 37 37 38 38 39 40 40 41 41 42 42 42 43 43 43 44 45 45
22 23 23 24 25 25 26 27 27 28 28 29 29 30 30 31 31 32 32 33 33 33 34 34 35 35 35 35 35 35 35 35 36 36 36 36 36 36 36 36 35 35 35 35 35 35 35 35 35 35 35 35 35 35 35 35 35 35 35 35 35 35 36 36 36 36 37 37 38 38 39 39 40 41 41 42 42 42 43 43 43 44 44 45 45 46
23 23 24 25 26 26 27 28 28 29 29 30 30 31 31 32 32 33 33 33 34 34 35 35 35 35 36 36 36 36 36 36 36 36 37 37 37 37 37 37 37 37 37 37 36 36 36 36 36 36 36 36 36 36 36 35 35 35 36 36 36 36 36 36 36 37 37 38 39 39 40 40 41 42 42 42 43 43 43 44 44 44 45 45 46 47
24 24 25 26 26 27 28 29 29 30 30 31 31 32 32 33 33 33 34 34 34 35 35 36 36 36 36 36 36 36 37 37 37 37 37 37 38 38 38 38 38 38 38 38 37 37 37 37 37 36 36 37 37 37 36 36 36 36 36 36 36 37 37 37 37 37 38 39 39 40 41 41 42 42 43 43 43 44 44 44 44 45 45 46 46 47
24 25 26 27 27 28 29 29 30 30 31 31 32 32 33 34 34 34 35 35 35 36 36 36 37 37 37 37 37 37 37 37 37 37 38 38 38 38 39 39 39 39 39 39 39 38 38 38 38 38 38 38 38 38 38 37 37 36 36 37 37 37 37 37 37 38 38 39 40 40 41 42 43 43 43 44 44 44 44 45 45 45 45 46 47 48
25 26 27 28 28 29 30 30 31 31 32 32 33 33 34 34 35 35 36 36 36 37 37 37 37 38 38 38 38 37 37 38 38 38 38 38 39 39 39 39 40 40 40 40 40 39 39 39 39 39 39 39 39 39 39 38 38 38 37 37 38 38 38 38 38 38 39 39 40 41 42 42 43 44 44 44 45 45 45 45 45 45 46 46 47 48
26 27 28 28 29 30 31 31 32 32 33 33 34 34 35 35 36 36 37 37 37 38 38 38 38 38 38 38 38 38 38 38 38 38 38 39 39 39 40 40 40 41 41 41 41 41 41 41 40 41 40 40 40 40 40 40 39 39 39 38 39 39 39 39 39 39 39 40 41 41 42 43 44 44 44 45 45 45 45 45 45 45 46 47 48 49
27 28 29 30 30 31 32 32 33 34 34 34 35 35 36 36 37 37 38 38 38 38 39 39 39 39 39 39 39 39 39 38 38 39 39 39 39 40 40 41 41 41 42 42 42 42 42 42 42 42 42 42 42 41 41 41 40 40 40 40 40 40 39 39 39 40 40 41 41 42 43 43 44 44 45 45 45 45 45 45 45 46 46 47 48 49
28 29 30 31 31 32 33 34 34 35 35 35 36 36 37 37 38 38 38 39 39 39 39 40 40 40 40 40 40 40 39 39 39 39 39 39 40 40 40 41 41 42 42 43 43 43 43 43 43 43 43 43 43 43 42 42 42 41 41 41 41 41 40 40 40 40 41 41 42 43 43 44 44 44 45 45 45 45 45 46 46 46 47 48 49 50
30 30 31 32 33 33 34 35 35 36 36 37 37 37 38 38 39 39 39 40 40 40 40 40 40 41 41 41 41 40 40 40 40 40 40 40 40 40 41 41 42 42 43 43 43 44 44 44 45 45 45 44 44 44 44 43 43 43 42 42 42 42 41 41 41 41 42 42 43 43 44 44 44 45 45 45 45 45 46 46 46 47 48 49 50 50
31 32 32 33 34 35 35 36 37 37 38 38 38 39 39 40 40 40 40 40 41 41 41 41 41 41 41 41 41 41 41 41 41 40 40 40 41 41 41 42 42 43 43 43 44 44 45 45 45 46 45 45 45 45 44 44 44 44 44 43 43 43 42 42 42 42 42 43 43 44 44 44 44 44 44 45 45 45 46 46 47 48 48 49 50 51
32 33 34 34 35 36 37 37 38 38 39 39 40 40 40 41 41 41 41 41 41 42 42 42 42 42 42 42 42 42 42 42 41 41 41 41 41 41 42 42 43 43 43 44 44 44 45 45 46 46 46 46 45 45 45 45 45 45 45 44 44 43 43 43 43 43 43 44 44 44 44 44 44 44 44 44 45 45 46 47 48 49 49 50 51 52
Wind_Direction
285 287 288 291 293 294 294 294 292 290 288 287 287 288 289 288 287 287 286 286 287 287 287 286 285 285 284 283 283 282 282 283 283 284 285 286 287 288 289 289 290 291 291 292 292 292 292 292 291 291 290 290 289 288 288 287 287 287 287 288 288 288 287 287 286 285 284 283 283 283 283 283 284 285 286 287 288 289 290 290 291 291 291 290 289 289
287 289 291 292 294 294 293 291 289 287 286 287 287 287 287 286 286 285 285 286 286 286 286 285 284 283 282 282 282 282 282 283 284 285 286 287 288 288 289 290 290 291 291 292 292 292 292 291 291 290 290 289 288 288 287 287 287 287 287 287 287 287 287 286 285 284 284 283 282 282 282 282 283 284 285 285 286 287 288 289 289 290 290 289 289 288
290 291 292 293 293 292 290 288 286 285 285 286 286 286 285 284 284 284 285 285 285 285 284 283 283 282 281 281 282 282 283 284 285 286 287 288 288 289 290 290 291 291 292 292 292 292 292 291 291 290 290 289 288 287 287 287 287 287 287 287 287 287 286 286 285 284 283 282 282 281 281 282 282 283 284 284 285 286 287 288 288 288 289 288 288 288
291 292 293 293 292 290 288 286 284 284 285 285 285 284 283 283 283 283 284 284 284 283 283 282 281 281 281 282 282 283 284 285 286 287 288 289 289 290 290 291 291 291 292 292 292 291 291 291 291 290 289 289 288 287 287 287 287 287 287 287 287 287 286 286 285 284 283 283 282 281 281 281 282 282 283 284 284 285 286 286 287 287 288 288 288 287
293 293 293 292 290 288 286 284 283 283 284 284 283 283 282 282 283 283 283 283 283 282 281 280 280 280 281 282 283 284 285 286 287 288 289 289 290 290 290 291 291 291 291 291 291 291 291 291 290 290 289 289 288 288 287 287 287 287 287 287 287 287 286 286 285 284 283 283 282 281 281 281 281 282 282 283 284 284 285 286 286 287 287 287 287 287
293 293 292 291 288 286 284 282 281 282 282 282 281 281 281 282 282 282 282 282 281 280 279 279 279 280 281 282 283 284 286 287 288 289 289 290 290 290 290 291 291 291 291 291 291 291 291 290 290 290 289 288 288 288 288 288 288 288 287 287 287 287 286 286 285 284 284 283 282 281 281 281 281 281 282 283 283 284 284 285 286 286 287 287 287 287
293 292 290 289 287 284 282 280 280 280 280 280 280 280 281 281 281 281 281 280 279 279 278 279 280 281 282 283 284 285 287 287 289 289 289 290 290 290 291 291 291 291 291 291 291 291 291 290 290 289 289 289 288 288 288 288 288 288 287 287 287 287 286 286 285 284 284 283 282 282 282 281 281 282 282 282 283 283 284 284 285 286 286 287 287 287
291 289 287 286 284 282 280 279 279 279 279 279 280 280 280 280 280 279 279 278 278 278 278 279 280 282 283 284 285 286 287 288 289 289 289 290 290 290 291 291 291 291 291 291 291 291 291 290 290 289 289 289 288 288 288 288 288 287 287 287 287 287 286 286 285 284 284 283 283 282 282 282 282 282 282 282 282 282 283 284 284 285 286 286 287 286
288 286 284 282 281 279 278 278 278 278 279 279 279 279 279 279 278 278 277 277 277 278 279 280 281 283 284 285 286 287 288 289 289 289 289 290 290 290 290 291 291 291 291 291 291 291 290 290 290 289 289 289 288 288 288 288 288 287 287 287 287 286 286 285 285 284 284 283 283 282 282 282 282 282 282 282 282 282 282 283 284 284 285 286 286 286
284 282 280 279 278 277 277 277 277 278 278 278 278 278 278 277 277 276 275 276 277 278 280 281 283 284 285 286 287 288 289 289 289 289 289 289 289 290 290 290 290 290 290 290 290 290 290 290 290 289 289 289 289 288 288 288 288 287 287 287 286 286 285 285 285 284 284 283 283 283 283 282 282 282 282 282 282 282 282 283 283 284 285 285 286 285
280 278 277 276 275 275 275 276 277 277 277 277 278 277 277 276 275 274 274 275 277 278 280 282 284 285 287 288 288 288 289 289 289 289 289 289 289 289 290 290 290 290 290 290 290 290 290 290 290 289 289 289 289 289 288 288 288 287 287 287 286 286 285 285 284 284 284 283 283 283 283 283 282 282 282 282 282 282 282 283 283 284 285 285 285 285
276 275 274 274 274 274 275 275 276 276 277 277 276 276 275 274 274 274 274 276 277 279 281 283 285 286 287 288 288 289 289 289 289 288 288 288 289 289 290 290 290 290 290 290 290 290 290 290 290 290 290 289 289 289 289 288 288 288 287 287 287 286 285 285 285 284 284 284 284 283 283 283 282 282 282 282 282 282 282 283 284 284 285 285 285 284
274 273 273 273 273 274 274 275 275 275 276 275 274 274 273 273 273 274 275 277 278 280 282 284 285 286 287 288 288 288 288 288 288 288 288 288 289 289 290 290 290 290 291 291 291 291 291 290 290 290 290 290 289 289 289 289 288 288 288 287 287 286 286 285 285 285 284 284 284 283 283 283 282 282 282 282 282 282 283 283 284 284 284 284 284 284
272 272 272 272 273 273 274 274 274 274 274 274 273 273 272 273 273 274 276 278 280 281 283 284 285 286 287 287 287 288 288 288 288 288 288 289 289 290 290 291 291 291 291 291 291 291 291 291 290 290 290 290 290 290 289 289 289 289 288 288 287 287 286 286 286 285 285 284 284 284 283 283 283 282 282 282 283 283 283 284 284 284 284 284 284 283
271 271 271 272 272 273 273 273 273 273 273 272 272 272 272 273 274 275 277 279 281 283 284 285 285 286 286 286 287 287 287 287 288 288 288 289 290 290 291 291 291 291 291 291 291 291 291 291 291 290 290 290 290 290 290 290 289 289 289 288 288 287 287 286 286 285 285 285 284 284 283 283 283 283 283 283 283 284 284 284 284 284 284 284 283 283
270 270 270 271 271 272 272 272 272 272 272 271 271 272 273 274 275 277 279 281 283 284 285 285 286 286 286 286 286 287 287 287 288 288 289 289 290 291 291 291 291 291 291 291 291 291 291 291 290 290 290 290 290 290 290 289 289 289 289 288 288 287 287 287 286 286 285 285 284 284 284 283 283 283 283 283 284 284 284 284 284 284 284 284 283 283
268 269 269 270 271 271 271 271 271 271 271 271 271 272 274 275 277 280 281 283 284 285 286 286 286 286 286 287 287 287 288 288 289 289 290 290 291 291 291 291 291 291 291 291 291 291 290 290 290 290 290 290 290 290 289 289 289 289 288 288 288 287 287 286 286 286 285 285 284 284 284 283 283 283 283 284 284 284 284 285 285 284 284 284 283 283
268 268 269 269 270 270 270 270 270 270 270 271 272 274 275 277 279 281 283 284 285 286 286 286 287 287 287 287 288 289 289 290 290 290 291 291 291 292 291 291 291 291 291 290 290 290 290 290 290 290 289 289 289 289 289 288 288 288 288 288 287 287 286 286 286 285 285 284 284 284 284 284 284 284 284 284 285 285 285 285 285 285 284 284 284 283
267 267 268 268 268 268 268 269 269 270 271 272 274 276 278 279 281 282 284 284 285 286 286 287 287 288 288 289 290 291 291 291 291 291 292 291 292 292 291 291 290 290 290 290 290 290 290 290 289 289 289 289 288 288 288 288 287 287 287 287 287 286 286 285 285 284 284 284 284 284 284 284 284 285 285 285 285 286 285 285 285 285 285 284 284 284
266 266 267 267 267 268 268 269 269 271 272 274 276 278 279 281 282 283 284 284 285 285 286 287 287 288 289 290 291 292 292 292 292 292 292 292 292 291 291 291 290 290 290 290 290 290 289 289 289 289 288 288 288 288 287 287 287 287 287 287 286 286 286 285 285 284 284 284 284 284 284 285 285 285 286 286 286 286 286 285 285 285 285 285 285 285
265 266 266 267 267 267 268 269 271 272 274 276 278 280 281 282 283 283 284 284 285 286 286 287 288 290 291 292 292 293 293 293 293 292 292 292 291 291 291 291 290 290 290 290 290 290 289 289 289 288 288 288 288 287 287 287 287 287 287 287 287 286 286 286 285 285 284 284 284 284 285 285 286 286 286 286 286 286 286 285 285 285 285 285 285 285
265 266 266 267 267 268 269 271 273 275 277 278 279 281 282 282 283 283 284 285 285 287 288 289 290 291 292 293 293 294 294 293 293 292 292 292 291 291 291 291 290 290 290 290 290 290 289 289 289 289 288 288 288 287 287 287 287 287 287 287 287 287 287 286 286 285 285 285 285 285 285 286 286 286 286 286 286 286 286 286 286 286 286 286 286 286
265 265 266 267 268 269 271 273 275 276 278 279 280 281 281 282 283 283 284 286 287 288 290 291 292 293 294 294 294 294 294 294 293 293 292 292 292 292 292 291 291 290 290 290 290 290 290 289 289 289 289 288 288 288 288 287 287 287 287 287 287 287 287 287 286 286 286 286 286 286 286 286 286 286 286 286 286 286 286 286 286 286 287 287 287 287
264 265 266 267 269 271 273 274 276 277 278 279 279 280 281 282 283 285 286 288 290 291 292 293 294 295 295 295 295 295 295 295 294 293 293 292 292 292 292 292 291 291 291 291 290 290 290 290 290 290 289 289 288 288 288 287 287 287 287 287 287 287 287 287 287 286 286 286 286 286 286 286 286 286 286 286 286 286 287 287 287 287 287 288 288 288
263 264 266 268 270 272 274 275 276 277 278 279 280 281 282 284 286 287 289 291 292 293 294 295 295 295 295 296 295 295 295 295 294 294 293 293 293 293 293 292 292 291 291 291 291 291 290 290 290 290 290 289 289 288 288 288 288 287 287 287 287 287 287 287 287 287 287 287 287 286 286 286 286 286 286 286 287 287 287 288 288 288 288 288 288 288
263 265 267 269 271 273 274 275 276 277 278 279 280 282 284 286 288 290 291 293 294 295 295 296 296 296 296 296 296 296 296 295 295 294 293 293 293 293 293 293 292 292 291 291 291 291 290 290 290 290 290 289 289 288 288 288 288 288 288 288 287 287 287 287 287 287 287 287 287 287 287 287 287 287 287 287 288 288 288 288 288 288 288 288 288 288
264 266 268 270 271 273 274 275 276 277 279 281 282 285 287 288 290 291 293 294 295 296 296 297 297 297 297 296 296 296 296 295 295 294 294 294 293 293 293 293 292 292 291 291 291 290 290 290 289 289 289 289 289 288 288 288 288 288 288 288 288 288 287 287 287 287 287 287 287 287 287 287 288 288 288 288 289 289 289 289 289 289 289 289 289 288
266 267 269 270 272 273 274 275 277 278 280 282 285 286 288 290 292 293 294 295 296 296 297 297 297 297 297 297 297 296 296 296 295 295 295 294 294 294 294 293 293 292 291 291 291 290 290 289 289 289 289 289 289 289 289 289 289 289 288 288 288 288 288 287 287 287 287 287 288 288 288 288 288 289 289 289 289 289 289 289 289 289 289 289 289 289
267 268 270 271 272 273 275 276 278 280 282 284 286 288 290 291 293 294 295 296 297 297 298 298 298 298 298 298 298 297 297 297 297 296 296 295 294 294 294 294 293 292 291 291 291 291 290 290 290 289 289 289 289 289 289 289 289 289 289 289 288 288 288 288 288 288 288 288 288 289 289 289 289 289 289 289 289 289 289 289 289 289 289 289 288 288
268 269 270 271 272 274 275 278 280 282 284 286 287 289 291 293 294 295 296 297 297 298 298 298 299 299 299 298 299 298 298 298 298 298 297 295 295 295 295 294 293 293 292 292 291 291 291 291 291 290 290 290 290 290 289 289 289 289 289 289 288 289 288 288 289 289 289 289 289 289 289 289 290 290 290 289 289 289 289 289 289 289 289 289 289 289
268 268 269 271 273 275 277 279 281 283 285 287 289 291 293 294 295 296 297 298 298 299 299 299 299 299 299 299 299 298 298 299 299 298 297 296 295 295 295 294 293 293 293 292 292 291 291 291 291 291 291 290 290 290 289 289 289 289 289 289 289 289 289 289 289 289 290 290 290 290 290 290 290 290 290 290 289 289 289 289 289 289 288 289 289 289
267 268 270 272 274 276 279 281 283 285 287 289 291 292 294 295 296 297 298 299 299 299 299 300 300 300 300 300 299 299 299 299 299 299 298 297 296 296 296 295 294 294 293 293 292 292 291 291 291 291 290 290 290 289 289 289 289 289 289 289 289 289 289 290 290 290 290 291 291 291 291 290 290 290 290 290 290 289 289 289 289 289 289 289 289 290
267 268 271 273 276 278 280 282 284 287 289 290 292 294 295 296 297 298 299 299 300 300 300 300 300 300 301 300 300 300 300 300 300 299 298 297 297 296 296 295 295 294 294 293 293 292 292 292 291 291 290 290 290 289 289 289 289 289 290 290 290 290 290 291 291 291 291 291 291 291 291 291 291 291 290 290 290 290 289 289 289 289 289 289 290 290
266 269 271 274 276 279 281 283 286 288 290 291 293 294 296 297 298 299 299 300 300 301 301 301 301 301 301 301 300 300 300 300 300 299 298 297 296 296 296 295 295 295 294 294 293 293 292 292 292 292 291 291 291 291 291 291 291 291 291 291 291 291 291 291 291 292 292 292 292 291 291 291 291 291 290 290 290 290 290 290 289 290 289 290 290 291
267 269 272 275 277 280 282 285 287 289 291 292 294 295 296 297 298 299 300 301 301 301 301 301 301 301 301 300 300 299 299 299 299 299 298 297 296 296 295 295 295 295 294 294 293 293 293 293 293 293 293 292 292 292 292 292 292 292 292 292 292 292 292 292 292 292 292 292 292 291 291 291 291 291 291 290 290 290 290 290 290 290 290 290 291 292
268 271 274 277 279 282 284 286 288 290 292 293 294 296 297 298 299 300 301 301 301 301 301 301 301 301 301 300 300 299 298 298 298 298 297 296 296 295 295 294 294 294 294 294 294 293 293 293 294 294 294 294 294 294 293 293 293 293 293 293 292 292 292 292 292 292 292 291 291 291 291 291 291 291 291 291 291 291 291 291 290 290 291 291 292 293
271 274 276 279 281 284 286 288 289 291 292 294 295 296 297 298 299 300 300 301 301 301 301 301 301 301 300 300 299 299 298 298 297 297 296 296 295 294 294 294 294 294 293 293 293 293 294 294 294 294 295 295 295 295 295 295 295 294 294 294 293 293 292 292 292 292 292 292 291 291 291 291 291 291 292 292 292 292 291 291 291 291 292 292 293 294
273 276 278 280 282 285 286 288 289 291 292 293 295 296 297 298 299 299 300 300 300 300 300 300 300 300 299 299 298 298 297 297 296 296 295 295 294 294 293 293 293 293 293 293 293 293 294 294 294 295 295 295 296 296 296 296 296 296 295 295 294 294 293 293 293 292 292 292 292 292 292 292 292 292 293 293 293 292 292 292 292 292 293 293 294 296
276 278 280 282 284 286 287 288 290 291 293 294 295 296 297 298 299 299 300 300 300 300 300 299 299 299 299 298 298 297 296 296 295 294 294 294 293 293 292 292 292 292 292 292 293 293 294 294 295 295 295 296 296 297 297 297 297 297 296 295 295 294 294 294 293 293 293 293 293 293 293 293 293 294 294 294 293 293 293 293 293 293 294 294 295 297
279 281 282 284 285 287 288 290 291 292 294 295 296 297 298 298 299 299 300 300 300 300 299 299 299 298 298 298 297 296 296 295 294 294 293 292 292 291 291 290 290 291 291 291 292 293 293 294 294 295 295 296 296 297 297 297 297 297 296 296 295 295 294 294 294 293 293 293 293 293 294 294 294 294 294 294 294 294 294 293 294 294 295 295 297 298
281 282 284 285 287 288 289 291 292 294 295 296 297 298 298 299 299 299 299 300 299 299 299 299 298 298 298 297 297 296 295 295 294 293 292 292 291 290 290 289 289 290 290 291 291 292 293 293 294 294 294 295 296 296 297 297 297 297 296 296 295 295 294 294 294 294 293 293 293 294 294 294 294 295 295 295 295 294 294 294 294 295 296 296 298 299
282 283 285 286 287 289 290 292 293 294 295 296 297 298 298 299 299 299 299 299 299 298 298 298 297 297 297 297 296 296 295 294 294 293 292 291 290 289 289 288 288 288 289 290 290 291 291 292 292 293 293 294 295 295 296 297 297 297 297 296 296 295 295 294 294 294 294 294 294 294 294 295 295 295 295 295 295 295 295 295 295 296 297 297 299 300
282 284 285 287 288 290 291 292 293 294 295 296 297 297 298 298 298 298 298 298 298 298 297 297 297 296 296 296 296 296 295 294 294 293 292 291 290 289 288 288 287 287 288 288 289 290 290 290 291 291 292 293 294 295 296 296 297 297 297 297 296 296 296 295 295 295 295 295 295 295 295 295 295 295 295 295 295 295 295 295 296 296 297 298 300 301
282 284 286 287 288 290 291 292 293 294 295 296 296 297 297 297 298 298 298 297 297 297 297 296 296 296 296 296 296 295 295 294 294 293 292 291 290 289 288 287 287 286 286 287 288 288 289 289 289 290 291 292 293 294 295 296 297 297 297 297 297 297 297 297 297 296 296 296 295 295 295 295 295 295 295 295 295 295 295 296 296 297 298 299 301 302
283 284 286 287 289 290 291 292 293 294 294 295 296 296 297 297 297 297 297 297 297 297 296 296 296 296 295 295 295 295 294 294 293 293 292 291 290 289 288 287 286 286 286 286 286 287 288 288 288 289 289 290 292 293 294 295 296 296 297 297 297 297 298 298 298 298 297 297 296 296 296 296 296 296 296 296 295 295 295 296 297 298 299 300 302 303
284 285 287 288 289 290 291 292 293 293 294 295 295 296 296 297 297 297 297 297 297 297 296 296 296 295 295 295 295 294 294 293 293 292 292 291 290 289 288 287 286 286 285 285 285 286 286 287 287 288 289 289 290 292 293 294 295 296 296 297 297 298 298 299 299 299 299 298 298 297 297 296 296 296 296 296 296 296 296 296 297 298 300 301 303 304
285 286 287 288 289 290 291 292 292 293 294 295 295 296 296 296 297 297 297 297 297 296 296 296 295 295 295 295 295 294 293 293 292 291 291 290 290 289 288 287 286 286 285 285 285 285 285 286 286 287 288 289 290 291 292 293 294 295 296 296 297 297 298 299 299 299 299 299 298 298 297 297 297 296 296 296 296 296 296 297 298 299 301 302 304 305
285 286 287 288 289 290 291 292 292 293 294 295 295 296 296 296 297 297 297 297 297 296 296 296 295 295 295 294 294 293 293 292 291 291 290 290 289 289 288 287 286 286 285 285 285 285 285 286 286 287 287 289 290 291 291 292 293 294 295 295 296 297 298 298 299 300 300 299 299 298 298 297 297 297 296 296 296 297 297 298 299 300 301 303 304 305
285 286 287 288 289 290 291 292 293 294 294 295 296 296 296 296 297 297 297 297 296 296 296 295 295 294 294 293 293 292 292 291 291 290 289 289 289 288 288 287 286 286 285 285 285 285 285 286 286 287 287 288 289 290 291 292 293 293 294 295 296 296 297 298 299 300 300 300 299 298 298 297 297 297 297 297 297 298 298 299 300 301 303 304 305 306
284 286 287 288 289 290 291 292 293 294 295 296 296 296 297 297 297 297 297 297 296 296 295 295 294 294 293 293 292 292 291 290 290 289 289 288 288 288 287 287 286 286 286 285 285 285 285 286 287 287 287 288 289 290 291 291 292 293 293 294 295 296 296 297 298 299 300 300 299 298 298 297 297 296 296 297 297 298 299 300 301 302 303 305 306 307
285 286 287 288 290 291 292 293 294 295 296 296 297 297 297 297 297 297 297 297 296 296 295 294 294 293 292 292 291 291 290 289 289 289 288 288 288 287 287 287 286 286 286 285 285 286 286 287 287 287 288 288 289 289 290 291 292 293 293 293 294 295 295 296 298 299 300 299 299 298 297 297 296 296 296 297 297 299 300 301 302 303 304 305 306 307
Height
5716 5715 5714 5713 5712 5711 5710 5709 5709 5708 5707 5706 5706 5706 5705 5705 5704 5703 5703 5703 5702 5702 5701 5701 5700 5700 5699 5699 5699 5698 5698 5697 5697 5696 5696 5695 5695 5695 5694 5693 5693 5692 5692 5691 5691 5691 5690 5690 5689 5688 5688 5687 5687 5686 5686 5686 5685 5685 5684 5684 5684 5683 5683 5683 5683 5682 5682 5681 5681 5681 5681 5680 5680 5680 5679 5679 5679 5678 5678 5677 5677 5677 5676 5676 5676 5676
5713 5712 5711 5710 5709 5708 5706 5706 5706 5705 5704 5704 5704 5703 5703 5702 5701 5701 5701 5700 5700 5699 5699 5698 5698 5698 5697 5697 5696 5696 5696 5695 5695 5694 5694 5693 5693 5692 5692 5691 5691 5691 5690 5690 5689 5688 5688 5687 5687 5686 5686 5685 5685 5684 5684 5683 5683 5682 5682 5682 5681 5681 5681 5681 5681 5680 5680 5679 5679 5679 5679 5678 5678 5677 5677 5677 5676 5676 5676 5676 5675 5675 5674 5674 5674 5674
5710 5709 5708 5707 5706 5705 5704 5703 5702 5702 5702 5701 5701 5701 5700 5700 5699 5698 5698 5698 5697 5697 5696 5696 5696 5695 5695 5695 5694 5694 5693 5693 5692 5692 5692 5691 5691 5691 5690 5690 5689 5688 5688 5687 5687 5686 5686 5685 5685 5684 5683 5683 5682 5682 5681 5681 5681 5680 5680 5680 5679 5679 5679 5678 5678 5678 5677 5677 5677 5677 5676 5676 5676 5676 5675 5675 5674 5674 5674 5673 5673 5673 5672 5672 5672 5671
5707 5706 5705 5704 5703 5702 5701 5701 5700 5699 5699 5699 5699 5698 5698 5697 5696 5696 5696 5695 5695 5695 5694 5694 5694 5693 5693 5693 5692 5692 5691 5691 5691 5690 5690 5689 5689 5688 5688 5687 5687 5686 5686 5685 5685 5684 5683 5683 5682 5682 5681 5681 5680 5680 5679 5679 5678 5678 5677 5677 5677 5676 5676 5676 5676 5676 5675 5675 5675 5674 5674 5674 5674 5673 5673 5673 5672 5672 5671 5671 5671 5671 5670 5670 5670 5669
5704 5702 5701 5701 5700 5699 5698 5698 5697 5697 5697 5696 5696 5696 5695 5695 5694 5693 5693 5693 5692 5692 5692 5692 5691 5691 5691 5691 5690 5690 5689 5689 5688 5688 5688 5687 5687 5686 5686 5685 5685 5684 5684 5683 5682 5682 5681 5681 5680 5680 5679 5678 5678 5677 5677 5676 5676 5676 5675 5675 5675 5674 5674 5674 5673 5673 5673 5673 5672 5672 5672 5671 5671 5671 5671 5670 5670 5670 5669 5669 5669 5668 5668 5668 5667 5667
5700 5699 5698 5697 5697 5696 5696 5696 5695 5695 5694 5694 5693 5693 5692 5692 5691 5691 5691 5690 5690 5690 5690 5690 5690 5689 5689 5688 5688 5687 5687 5687 5686 5686 5686 5685 5685 5684 5683 5683 5682 5682 5681 5681 5680 5679 5679 5678 5678 5677 5676 5676 5676 5675 5675 5674 5674 5673 5673 5672 5672 5672 5671 5671 5671 5671 5671 5670 5670 5670 5669 5669 5669 5669 5668 5668 5668 5667 5667 5667 5666 5666 5666 5665 5665 5665
5696 5696 5695 5694 5694 5693 5693 5693 5692 5692 5692 5691 5691 5691 5690 5690 5689 5689 5688 5688 5688 5688 5688 5688 5687 5687 5687 5686 5686 5686 5685 5685 5684 5684 5683 5683 5682 5681 5681 5681 5680 5679 5679 5678 5677 5677 5676 5676 5675 5675 5674 5674 5673 5673 5672 5672 5671 5671 5671 5670 5670 5670 5669 5669 5668 5668 5668 5668 5667 5667 5667 5667 5666 5666 5666 5666 5665 5665 5665 5664 5664 5664 5663 5663 5663 5662
5693 5693 5692 5692 5691 5691 5691 5690 5690 5689 5689 5689 5689 5688 5688 5687 5687 5686 5686 5686 5686 5686 5686 5685 5685 5685 5685 5684 5684 5683 5683 5683 5682 5681 5681 5681 5680 5679 5679 5678 5678 5677 5676 5676 5675 5675 5674 5673 5673 5672 5672 5671 5671 5670 5670 5669 5669 5669 5668 5668 5667 5667 5667 5666 5666 5666 5666 5665 5665 5665 5665 5664 5664 5664 5664 5663 5663 5663 5662 5662 5662 5661 5661 5661 5660 5660
5691 5690 5689 5689 5689 5688 5688 5688 5687 5687 5686 5686 5686 5686 5686 5686 5685 5685 5684 5684 5684 5684 5683 5683 5683 5683 5682 5682 5682 5681 5681 5681 5680 5679 5679 5678 5677 5677 5676 5676 5675 5675 5674 5673 5673 5672 5671 5671 5671 5670 5670 5669 5668 5668 5667 5667 5666 5666 5666 5666 5665 5665 5664 5664 5664 5663 5663 5663 5662 5662 5662 5662 5661 5661 5661 5661 5661 5661 5660 5660 5659 5659 5659 5658 5658 5657
5688 5687 5686 5686 5686 5686 5686 5685 5685 5684 5684 5684 5684 5684 5684 5684 5683 5683 5683 5682 5682 5682 5681 5681 5681 5680 5680 5680 5680 5679 5679 5678 5678 5677 5676 5676 5675 5675 5674 5673 5673 5672 5671 5671 5670 5670 5669 5669 5668 5668 5667 5667 5666 5666 5665 5665 5664 5664 5663 5663 5663 5662 5662 5661 5661 5661 5661 5660 5660 5660 5659 5659 5659 5659 5659 5658 5658 5658 5658 5657 5657 5657 5656 5656 5656 5655
5684 5684 5684 5683 5683 5683 5683 5682 5682 5682 5681 5681 5681 5681 5681 5681 5681 5681 5681 5681 5681 5680 5680 5679 5679 5678 5678 5677 5677 5677 5676 5676 5675 5675 5674 5673 5673 5672 5672 5671 5671 5670 5669 5669 5668 5668 5667 5666 5666 5666 5665 5664 5664 5663 5663 5662 5662 5661 5661 5661 5661 5660 5660 5659 5659 5658 5658 5658 5657 5657 5657 5657 5656 5656 5656 5656 5656 5655 5655 5655 5655 5654 5654 5653 5653 5652
5681 5681 5681 5681 5681 5681 5680 5680 5680 5679 5679 5680 5679 5679 5680 5679 5679 5679 5679 5679 5679 5678 5678 5677 5676 5676 5676 5675 5675 5674 5674 5673 5673 5672 5671 5671 5670 5670 5669 5669 5668 5667 5667 5666 5666 5665 5665 5664 5664 5663 5663 5662 5661 5661 5660 5660 5660 5659 5659 5658 5658 5658 5657 5657 5656 5656 5656 5656 5655 5655 5655 5654 5654 5654 5654 5653 5653 5653 5652 5652 5652 5651 5651 5651 5650 5650
5678 5678 5678 5678 5678 5678 5678 5678 5678 5678 5678 5678 5677 5677 5677 5677 5677 5677 5677 5677 5676 5676 5676 5675 5675 5674 5673 5673 5672 5672 5671 5671 5670 5670 5669 5668 5668 5667 5667 5666 5666 5665 5665 5664 5663 5663 5663 5662 5661 5661 5660 5660 5659 5659 5658 5657 5657 5657 5656 5656 5656 5655 5655 5654 5654 5654 5653 5653 5653 5652 5652 5652 5651 5651 5651 5651 5651 5650 5650 5649 5649 5649 5648 5648 5648 5647
5676 5676 5676 5675 5675 5676 5676 5676 5675 5675 5676 5676 5676 5676 5676 5675 5675 5675 5675 5675 5675 5674 5674 5673 5673 5672 5671 5671 5670 5670 5669 5668 5668 5667 5666 5666 5665 5665 5664 5664 5663 5663 5662 5661 5661 5661 5660 5660 5659 5659 5658 5657 5657 5656 5656 5655 5655 5654 5654 5653 5653 5653 5652 5652 5651 5651 5651 5651 5650 5650 5650 5649 5649 5649 5648 5648 5648 5647 5647 5646 5646 5646 5646 5645 5645 5644
5673 5673 5673 5673 5673 5673 5673 5673 5673 5673 5673 5674 5674 5673 5673 5673 5673 5673 5673 5672 5672 5672 5671 5671 5671 5670 5669 5669 5668 5667 5667 5666 5666 5665 5664 5663 5663 5663 5662 5661 5661 5660 5660 5659 5659 5658 5658 5657 5657 5656 5656 5655 5655 5654 5653 5653 5652 5652 5651 5651 5651 5650 5650 5650 5649 5649 5648 5648 5648 5647 5647 5647 5646 5646 5646 5646 5645 5645 5644 5644 5643 5643 5642 5642 5642 5641
5671 5671 5671 5671 5671 5671 5671 5671 5671 5671 5672 5672 5671 5671 5671 5671 5671 5671 5671 5670 5670 5670 5669 5668 5668 5668 5667 5666 5666 5665 5665 5664 5664 5663 5662 5661 5661 5660 5660 5659 5658 5658 5657 5657 5656 5656 5656 5655 5655 5654 5653 5653 5652 5651 5651 5651 5650 5650 5649 5649 5648 5648 5647 5647 5647 5646 5646 5646 5645 5645 5644 5644 5644 5643 5643 5643 5642 5642 5641 5641 5641 5640 5640 5639 5639 5638
5668 5668 5668 5669 5669 5669 5669 5670 5670 5670 5670 5670 5669 5669 5669 5669 5669 5669 5668 5668 5667 5667 5666 5666 5665 5665 5664 5664 5664 5663 5662 5662 5661 5661 5660 5659 5658 5658 5657 5657 5656 5656 5655 5655 5654 5654 5653 5652 5652 5651 5651 5650 5650 5649 5649 5648 5647 5647 5646 5646 5646 5645 5645 5645 5644 5644 5643 5643 5642 5642 5642 5641 5641 5641 5640 5640 5639 5639 5638 5638 5637 5637 5636 5636 5636 5635
5666 5666 5666 5666 5666 5667 5667 5668 5668 5668 5667 5667 5667 5667 5667 5666 5666 5666 5666 5666 5665 5664 5664 5663 5663 5662 5662 5661 5661 5661 5660 5659 5658 5658 5658 5657 5656 5656 5655 5654 5654 5653 5652 5652 5651 5651 5651 5650 5650 5649 5648 5648 5647 5646 5646 5646 5645 5645 5644 5644 5643 5643 5642 5642 5641 5641 5641 5640 5640 5639 5639 5638 5638 5637 5637 5637 5636 5636 5635 5635 5634 5634 5633 5633 5632 5632
5664 5664 5664 5664 5665 5665 5666 5666 5666 5666 5666 5665 5665 5665 5665 5665 5664 5664 5664 5663 5663 5662 5661 5661 5661 5660 5659 5659 5658 5658 5657 5656 5656 5656 5655 5655 5654 5653 5652 5652 5651 5651 5650 5649 5649 5648 5648 5647 5647 5646 5646 5645 5645 5644 5643 5643 5642 5642 5641 5641 5641 5640 5640 5639 5639 5638 5638 5637 5637 5636 5636 5636 5635 5635 5634 5634 5633 5633 5632 5632 5631 5631 5630 5630 5629 5629
5662 5662 5662 5663 5663 5663 5663 5664 5664 5663 5663 5663 5663 5663 5662 5662 5662 5662 5661 5661 5661 5660 5660 5659 5658 5658 5657 5656 5656 5655 5655 5654 5653 5653 5653 5652 5651 5651 5650 5649 5649 5648 5647 5647 5646 5646 5645 5645 5644 5644 5643 5643 5642 5641 5641 5640 5640 5639 5639 5638 5638 5637 5637 5636 5636 5635 5635 5634 5634 5633 5633 5632 5632 5631 5631 5631 5630 5630 5629 5629 5628 5628 5627 5627 5626 5626
5660 5660 5661 5661 5661 5661 5661 5661 5661 5661 5661 5661 5660 5660 5660 5660 5660 5659 5659 5659 5658 5658 5657 5657 5656 5656 5655 5654 5653 5653 5652 5651 5651 5651 5650 5650 5649 5648 5647 5647 5646 5646 5645 5644 5644 5643 5643 5642 5641 5641 5641 5640 5639 5639 5638 5638 5637 5636 5636 5635 5635 5634 5634 5633 5633 5632 5632 5631 5631 5630 5630 5629 5629 5628 5628 5627 5627 5626 5626 5626 5625 5625 5624 5624 5623 5623
5658 5658 5658 5659 5659 5659 5659 5659 5659 5659 5658 5658 5658 5658 5658 5658 5657 5657 5657 5656 5656 5656 5655 5654 5654 5653 5652 5651 5651 5650 5650 5649 5648 5648 5648 5647 5646 5646 5645 5644 5643 5643 5642 5641 5641 5640 5640 5639 5639 5638 5638 5637 5637 5636 5636 5635 5634 5634 5633 5632 5632 5631 5631 5630 5630 5629 5629 5628 5628 5627 5627 5626 5626 5625 5625 5624 5624 5623 5623 5622 5622 5621 5621 5621 5620 5619
5656 5656 5656 5656 5656 5657 5657 5657 5656 5656 5656 5656 5656 5656 5656 5655 5655 5655 5654 5654 5653 5653 5652 5652 5651 5651 5650 5649 5648 5648 5647 5646 5646 5645 5645 5644 5643 5643 5642 5641 5641 5640 5640 5639 5638 5637 5637 5636 5636 5636 5635 5635 5634 5633 5633 5632 5631 5631 5630 5630 5629 5628 5627 5627 5626 5626 5626 5625 5625 5624 5624 5623 5622 5622 5621 5621 5621 5620 5620 5619 5618 5618 5617 5617 5616 5616
5654 5654 5654 5655 5655 5655 5655 5654 5654 5654 5654 5654 5653 5653 5653 5653 5652 5652 5652 5651 5651 5650 5650 5649 5649 5648 5647 5646 5646 5645 5644 5644 5643 5642 5642 5641 5641 5640 5640 5639 5638 5637 5637 5636 5635 5635 5634 5633 5633 5633 5632 5631 5631 5630 5630 5629 5628 5628 5627 5626 5626 5625 5625 5624 5623 5623 5622 5622 5621 5621 5620 5620 5619 5619 5618 5618 5617 5617 5616 5616 5615 5615 5614 5613 5613 5612
5652 5652 5652 5652 5652 5652 5652 5652 5652 5652 5652 5651 5651 5651 5651 5651 5650 5650 5649 5649 5648 5648 5647 5647 5646 5646 5645 5645 5644 5643 5642 5641 5640 5640 5639 5638 5638 5637 5637 5636 5636 5635 5634 5633 5632 5631 5631 5631 5630 5630 5629 5628 5628 5627 5627 5626 5626 5625 5624 5624 5623 5622 5621 5621 5620 5620 5619 5619 5618 5617 5617 5616 5616 5616 5615 5614 5614 5613 5613 5612 5611 5611 5610 5610 5609 5608
5650 5650 5651 5651 5651 5651 5651 5650 5650 5650 5650 5650 5649 5649 5649 5648 5648 5647 5647 5646 5646 5646 5645 5645 5644 5643 5643 5642 5641 5640 5639 5639 5638 5637 5636 5636 5635 5634 5634 5633 5632 5632 5631 5630 5629 5629 5628 5627 5627 5626 5626 5625 5625 5624 5624 5623 5622 5622 5621 5621 5620 5619 5619 5618 5617 5617 5616 5616 5615 5614 5614 5613 5613 5612 5611 5611 5611 5610 5609 5609 5608 5607 5606 5606 5605 5604
5648 5648 5649 5649 5648 5648 5648 5648 5648 5648 5648 5647 5647 5647 5646 5646 5646 5646 5645 5645 5644 5643 5643 5642 5641 5641 5640 5639 5639 5638 5637 5636 5635 5634 5633 5633 5632 5631 5631 5630 5629 5629 5628 5627 5626 5626 5625 5625 5624 5623 5623 5622 5621 5621 5621 5620 5619 5619 5618 5617 5617 5616 5616 5615 5614 5614 5613 5612 5612 5611 5611 5610 5609 5609 5608 5607 5607 5606 5606 5605 5604 5603 5603 5602 5601 5601
5646 5646 5646 5646 5646 5646 5646 5646 5646 5646 5646 5645 5645 5645 5644 5644 5644 5643 5643 5642 5641 5641 5640 5639 5639 5638 5637 5636 5636 5635 5634 5633 5632 5631 5631 5630 5629 5629 5628 5627 5626 5626 5625 5624 5623 5622 5622 5621 5621 5620 5620 5619 5619 5618 5617 5617 5616 5616 5615 5614 5614 5613 5612 5612 5611 5611 5610 5610 5609 5608 5607 5607 5606 5606 5605 5604 5603 5602 5602 5601 5601 5600 5599 5598 5597 5597
5644 5645 5645 5645 5645 5644 5644 5644 5644 5644 5643 5643 5643 5642 5642 5641 5641 5641 5640 5640 5639 5638 5638 5637 5636 5635 5635 5634 5633 5632 5631 5631 5629 5628 5628 5627 5626 5626 5625 5624 5623 5622 5622 5621 5620 5620 5619 5618 5618 5617 5617 5616 5616 5615 5614 5614 5613 5612 5612 5611 5611 5610 5609 5609 5608 5607 5607 5606 5606 5605 5604 5603 5603 5602 5601 5601 5600 5599 5598 5597 5597 5596 5595 5594 5594 5593
5642 5642 5642 5642 5642 5642 5642 5642 5642 5641 5641 5641 5641 5640 5640 5639 5639 5638 5637 5637 5636 5636 5635 5634 5634 5633 5632 5631 5630 5630 5629 5628 5627 5626 5625 5624 5623 5623 5622 5621 5620 5620 5619 5618 5617 5617 5616 5616 5615 5615 5614 5613 5613 5612 5611 5611 5610 5610 5609 5608 5608 5607 5606 5606 5605 5604 5604 5603 5602 5601 5601 5600 5599 5598 5598 5597 5596 5595 5595 5594 5593 5592 5591 5591 5590 5590
5641 5641 5641 5640 5640 5640 5640 5640 5640 5639 5639 5639 5638 5638 5637 5637 5636 5636 5635 5634 5634 5633 5633 5632 5631 5630 5630 5628 5627 5626 5626 5625 5624 5623 5622 5621 5621 5620 5620 5619 5618 5617 5616 5616 5615 5614 5613 5613 5613 5612 5611 5611 5610 5609 5608 5608 5607 5606 5606 5605 5605 5604 5603 5602 5602 5601 5600 5600 5599 5598 5597 5596 5596 5595 5594 5593 5593 5592 5591 5591 5590 5589 5588 5587 5586 5586
5638 5638 5638 5638 5638 5638 5638 5637 5637 5637 5636 5636 5636 5635 5635 5634 5634 5633 5632 5632 5631 5631 5630 5629 5629 5628 5627 5626 5625 5624 5623 5622 5621 5621 5620 5619 5618 5617 5617 5616 5615 5614 5613 5613 5612 5611 5611 5610 5610 5610 5609 5608 5607 5606 5606 5605 5604 5604 5603 5602 5601 5601 5600 5599 5598 5598 5597 5596 5595 5595 5594 5593 5592 5591 5591 5590 5589 5588 5588 5587 5586 5586 5585 5584 5583 5582
5636 5636 5636 5636 5636 5636 5636 5635 5635 5635 5634 5634 5633 5633 5632 5632 5631 5631 5630 5629 5629 5628 5627 5627 5626 5626 5625 5624 5623 5622 5621 5620 5619 5618 5617 5616 5616 5615 5614 5613 5613 5612 5611 5610 5610 5609 5608 5607 5607 5607 5606 5606 5605 5604 5603 5602 5601 5601 5600 5599 5598 5597 5597 5596 5595 5594 5593 5593 5592 5591 5590 5589 5589 5588 5587 5586 5586 5585 5584 5584 5583 5582 5581 5580 5579 5578
5634 5634 5634 5634 5634 5634 5633 5633 5633 5632 5632 5631 5631 5631 5630 5630 5629 5628 5628 5627 5626 5626 5625 5624 5623 5623 5622 5621 5620 5619 5618 5617 5616 5615 5614 5614 5613 5612 5611 5611 5610 5609 5608 5607 5607 5606 5605 5605 5604 5604 5603 5603 5602 5601 5600 5599 5598 5597 5597 5596 5595 5594 5593 5593 5592 5591 5590 5589 5588 5587 5587 5586 5585 5584 5584 5583 5582 5581 5581 5580 5579 5579 5578 5577 5576 5575
5632 5632 5632 5632 5632 5632 5631 5631 5631 5630 5630 5629 5629 5628 5628 5627 5626 5626 5625 5625 5624 5623 5622 5621 5621 5620 5619 5618 5617 5616 5616 5615 5614 5613 5612 5611 5610 5610 5609 5608 5607 5606 5606 5605 5604 5603 5602 5601 5601 5601 5600 5600 5599 5598 5597 5596 5595 5594 5594 5593 5592 5591 5590 5589 5588 5587 5586 5586 5585 5584 5583 5582 5582 5581 5580 5580 5579 5578 5577 5576 5576 5575 5574 5573 5572 5571
5631 5631 5630 5630 5630 5630 5629 5629 5629 5628 5628 5627 5626 5626 5625 5625 5624 5623 5623 5622 5621 5621 5620 5619 5618 5617 5616 5615 5615 5614 5613 5612 5611 5610 5609 5608 5607 5607 5606 5606 5605 5604 5603 5602 5601 5601 5600 5599 5598 5597 5597 5596 5596 5595 5594 5593 5592 5591 5590 5590 5589 5588 5587 5586 5585 5584 5583 5582 5581 5581 5580 5579 5578 5577 5577 5576 5576 5575 5574 5573 5572 5571 5570 5569 5568 5567
5628 5628 5628 5628 5628 5627 5627 5627 5626 5626 5626 5625 5624 5624 5623 5622 5622 5621 5620 5620 5619 5618 5617 5616 5615 5614 5613 5613 5612 5611 5610 5609 5608 5607 5606 5606 5605 5604 5604 5603 5602 5601 5600 5600 5599 5598 5597 5596 5595 5594 5594 5593 5592 5592 5591 5590 5589 5588 5587 5586 5585 5584 5583 5583 5582 5581 5580 5579 5578 5577 5576 5576 5575 5574 5573 5573 5572 5571 5570 5569 5568 5567 5566 5565 5564 5563
5626 5626 5626 5626 5626 5625 5625 5625 5624 5624 5623 5623 5622 5621 5621 5620 5619 5619 5618 5617 5616 5616 5615 5614 5613 5612 5611 5610 5609 5608 5607 5606 5605 5605 5604 5603 5602 5601 5601 5600 5599 5598 5598 5597 5596 5595 5594 5593 5592 5591 5591 5590 5589 5589 5588 5587 5586 5586 5585 5583 5582 5581 5580 5579 5579 5578 5577 5576 5575 5574 5573 5572 5571 5571 5570 5569 5568 5567 5566 5565 5564 5563 5562 5561 5560 5559
5624 5624 5624 5624 5623 5623 5623 5622 5622 5621 5621 5620 5620 5619 5618 5618 5617 5616 5616 5615 5614 5613 5612 5611 5610 5609 5608 5607 5606 5606 5605 5604 5603 5602 5601 5600 5599 5599 5598 5597 5596 5596 5595 5594 5593 5592 5591 5590 5589 5588 5587 5586 5586 5586 5585 5584 5584 5583 5581 5581 5579 5578 5577 5576 5575 5574 5573 5572 5571 5571 5570 5569 5568 5567 5566 5565 5564 5563 5562 5561 5560 5559 5558 5557 5556 5554
5621 5621 5621 5621 5621 5620 5620 5620 5619 5619 5618 5617 5617 5616 5616 5615 5614 5614 5613 5612 5611 5610 5609 5608 5607 5606 5606 5605 5604 5603 5602 5601 5600 5599 5598 5597 5596 5596 5595 5594 5593 5593 5592 5591 5590 5589 5589 5588 5587 5586 5585 5584 5583 5582 5582 5581 5581 5580 5579 5578 5577 5576 5574 5573 5572 5571 5570 5569 5568 5567 5566 5565 5564 5563 5562 5561 5560 5559 5558 5557 5556 5555 5554 5553 5551 5550
5619 5619 5619 5618 5618 5617 5617 5617 5616 5616 5615 5615 5614 5614 5613 5612 5611 5611 5610 5609 5608 5607 5606 5605 5604 5603 5603 5602 5601 5600 5599 5598 5597 5596 5595 5595 5594 5593 5592 5591 5591 5590 5589 5588 5587 5586 5586 5585 5584 5583 5582 5581 5580 5579 5579 5578 5577 5576 5576 5575 5574 5573 5571 5570 5569 5568 5567 5566 5565 5564 5562 5561 5561 5560 5558 5557 5556 5555 5554 5553 5552 5551 5550 5548 5547 5546
5617 5616 5616 5616 5616 5615 5615 5614 5614 5613 5613 5612 5611 5611 5610 5610 5609 5608 5607 5606 5606 5605 5603 5602 5601 5601 5600 5599 5598 5597 5596 5595 5594 5593 5592 5591 5591 5590 5589 5588 5587 5586 5586 5585 5584 5583 5582 5582 5581 5580 5579 5578 5577 5576 5575 5575 5574 5573 5572 5571 5570 5569 5568 5567 5566 5565 5564 5562 5561 5560 5559 5558 5557 5556 5555 5554 5552 5551 5550 5549 5548 5546 5545 5544 5543 5541
5615 5614 5614 5613 5613 5612 5612 5612 5611 5611 5610 5610 5609 5608 5608 5607 5606 5605 5605 5604 5603 5602 5601 5600 5599 5598 5597 5596 5595 5594 5593 5592 5591 5591 5590 5589 5588 5587 5586 5585 5584 5583 5582 5582 5581 5580 5579 5578 5578 5577 5576 5575 5574 5573 5572 5571 5571 5570 5569 5567 5566 5566 5565 5564 5563 5562 5561 5559 5558 5556 5555 5554 5553 5552 5551 5550 5548 5547 5546 5545 5544 5543 5541 5540 5538 5536
5612 5612 5611 5611 5611 5610 5610 5609 5609 5608 5608 5607 5606 5606 5605 5604 5603 5602 5602 5601 5600 5599 5598 5597 5596 5595 5594 5593 5592 5591 5590 5589 5588 5587 5586 5586 5585 5584 5583 5582 5581 5580 5579 5578 5577 5577 5576 5575 5574 5573 5572 5571 5570 5570 5569 5568 5567 5567 5566 5564 5563 5562 5561 5560 5559 5558 5557 5556 5554 5553 5551 5550 5549 5548 5546 5546 5544 5543 5542 5541 5540 5538 5537 5536 5534 5532
5610 5609 5609 5609 5608 5608 5607 5607 5606 5606 5605 5605 5604 5603 5602 5601 5601 5600 5599 5598 5597 5596 5595 5594 5593 5592 5591 5590 5589 5588 5587 5586 5585 5584 5583 5582 5581 5580 5579 5578 5577 5576 5576 5575 5574 5573 5573 5572 5571 5570 5569 5568 5567 5566 5566 5565 5564 5563 5562 5561 5560 5558 5557 5556 5556 5555 5553 5552 5551 5549 5548 5546 5545 5544 5542 5541 5540 5539 5538 5536 5535 5534 5533 5531 5530 5528
5607 5607 5606 5606 5606 5605 5605 5604 5604 5603 5602 5602 5601 5601 5599 5598 5597 5596 5596 5595 5594 5593 5591 5591 5590 5588 5587 5586 5586 5585 5584 5583 5582 5581 5580 5579 5578 5577 5576 5575 5574 5573 5572 5571 5570 5570 5569 5568 5567 5566 5565 5565 5564 5563 5562 5561 5561 5559 5558 5557 5556 5555 5554 5553 5552 5551 5549 5548 5547 5546 5544 5543 5541 5540 5538 5537 5536 5535 5533 5532 5531 5530 5528 5527 5526 5524
5605 5604 5604 5604 5603 5603 5602 5601 5601 5600 5600 5599 5598 5597 5596 5596 5594 5593 5592 5591 5591 5589 5588 5587 5586 5585 5584 5583 5582 5581 5581 5580 5579 5578 5576 5575 5574 5573 5572 5571 5571 5570 5569 5568 5567 5566 5565 5564 5563 5562 5562 5561 5560 5559 5558 5558 5557 5556 5555 5553 5552 5551 5550 5549 5548 5547 5546 5544 5543 5541 5540 5539 5537 5536 5535 5533 5531 5530 5529 5528 5527 5526 5524 5523 5521 5520
5602 5602 5601 5601 5601 5600 5599 5599 5598 5597 5597 5596 5596 5595 5593 5592 5591 5590 5589 5588 5587 5586 5585 5584 5583 5582 5581 5580 5579 5578 5577 5576 5575 5574 5573 5572 5571 5570 5569 5568 5567 5566 5565 5564 5563 5562 5561 5561 5559 5559 5558 5557 5556 5555 5555 5554 5553 5552 5551 5549 5548 5547 5546 5545 5544 5543 5542 5540 5539 5538 5536 5535 5533 5532 5531 5529 5527 5526 5525 5523 5522 5521 5520 5519 5517 5515
5599 5599 5599 5598 5598 5597 5597 5596 5595 5595 5594 5593 5592 5591 5590 5589 5588 5587 5586 5585 5584 5583 5582 5581 5579 5578 5577 5576 5575 5574 5573 5572 5571 5571 5570 5568 5567 5566 5565 5564 5563 5562 5561 5561 5560 5559 5558 5557 5556 5555 5554 5553 5552 5552 5551 5550 5549 5548 5547 5546 5545 5543 5542 5541 5540 5539 5538 5536 5535 5534 5532 5531 5530 5528 5526 5525 5523 5522 5521 5519 5518 5516 5515 5514 5512 5511
5596 5596 5596 5595 5595 5594 5594 5593 5592 5591 5591 5590 5589 5588 5587 5586 5585 5584 5582 5581 5580 5579 5578 5577 5576 5574 5573 5572 5571 5571 5570 5569 5568 5567 5566 5565 5564 5563 5561 5561 5560 5559 5558 5557 5556 5556 5554 5553 5552 5551 5550 5550 5549 5548 5547 5546 5545 5544 5543 5541 5541 5540 5538 5537 5536 5535 5534 5532 5531 5530 5528 5527 5526 5524 5523 5521 5520 5518 5516 5515 5513 5512 5511 5509 5508 5506
5594 5593 5593 5592 5592 5591 5590 5590 5589 5588 5587 5586 5585 5584 5583 5582 5581 5580 5579 5578 5577 5576 5575 5573 5572 5571 5570 5568 5567 5566 5566 5565 5564 5563 5562 5561 5560 5559 5558 5557 5556 5555 5555 5553 5553 5552 5551 5550 5548 5546 5546 5546 5546 5544 5542 5541 5541 5540 5539 5538 5537 5536 5534 5533 5532 5531 5530 5528 5527 5526 5524 5523 5521 5520 5519 5517 5516 5514 5512 5511 5509 5507 5506 5505 5503 5501